Date String (YYYY-MM-DD hh:mm:ss) UTC,Instrument flags,Ambient pressure (hPa),Sample flow (lpm),Bypass flow (lpm),Sample temperature (°C),Ambient temperature (°C),ASC tube jacket temperature (°C),LED temperature (°C),Box temperature (°C),Sample RH (%),Span deviation,Mass concentration (μg/m³),Mass concentration (μg/m³),Mass concentration (μg/m³)
DateTimeUTC,F1_M11,P_M11,Q1_M11,Q2_M11,T1_M11,T2_M11,T3_M11,T4_M11,T5_M11,U1_M11,ZSPAN_M11,X0_M11,X2_M11,X1_M11
2021-09-28 05:00:00,,0824.1,5.01,0.00,29.6,28.6,00.0,38.6,31.4,13.2,0000.0,0010.33,0004.53,0003.54
2021-09-28 05:01:00,,0824.1,5.00,0.00,29.7,28.7,00.0,38.6,31.5,13.2,0000.0,0010.35,0004.51,0003.53
2021-09-28 05:02:00,,0824.1,5.01,0.00,29.7,28.8,00.0,38.6,31.5,13.3,0000.0,0010.42,0004.44,0003.50
2021-09-28 05:03:00,,0824.1,5.01,0.00,29.7,28.8,00.0,38.7,31.6,13.3,0000.0,0010.47,0004.35,0003.49
2021-09-28 05:04:00,,0824.1,4.99,0.00,29.8,28.9,00.0,38.7,31.6,13.3,0000.0,0011.20,0004.39,0003.49
2021-09-28 05:05:00,,0824.1,4.99,0.00,29.8,28.8,00.0,38.7,31.6,13.3,0000.0,0011.00,0004.40,0003.47
2021-09-28 05:06:00,,0824.1,5.01,0.00,29.7,27.1,00.0,38.7,31.2,13.4,0000.0,0011.43,0004.43,0003.46
2021-09-28 05:07:00,,0824.1,4.99,0.00,29.6,26.2,00.0,38.7,30.9,13.6,0000.0,0011.92,0004.49,0003.45
2021-09-28 05:08:00,,0824.1,5.01,0.00,29.5,26.4,00.0,38.7,31.0,13.7,0000.0,0012.01,0004.52,0003.43
2021-09-28 05:09:00,,0824.1,5.00,0.00,29.4,26.8,00.0,38.6,31.0,13.7,0000.0,0011.92,0004.53,0003.41
2021-09-28 05:10:00,,0824.0,5.00,0.00,29.4,27.2,00.0,38.6,31.0,13.8,0000.0,0011.76,0004.47,0003.39
2021-09-28 05:11:00,,0824.1,4.99,0.00,29.4,27.5,00.0,38.6,31.1,13.7,0000.0,0011.92,0004.47,0003.38
2021-09-28 05:12:00,,0824.1,5.01,0.00,29.4,27.8,00.0,38.6,31.2,13.8,0000.0,0012.08,0004.49,0003.37
2021-09-28 05:13:00,,0824.0,4.99,0.00,29.5,28.0,00.0,38.6,31.2,13.8,0000.0,0011.89,0004.50,0003.36
2021-09-28 05:14:00,,0824.0,5.01,0.00,29.5,28.2,00.0,38.6,31.3,13.8,0000.0,0011.75,0004.56,0003.35
2021-09-28 05:15:00,,0824.0,5.00,0.00,29.5,28.3,00.0,38.6,31.3,13.9,0000.0,0010.92,0004.53,0003.33
2021-09-28 05:16:00,,0824.0,5.00,0.00,29.6,28.4,00.0,38.6,31.3,13.9,0000.0,0010.88,0004.47,0003.30
2021-09-28 05:17:00,,0824.0,5.01,0.00,29.6,28.5,00.0,38.6,31.4,13.9,0000.0,0010.69,0004.37,0003.28
2021-09-28 05:18:00,,0824.0,4.98,0.00,29.6,28.6,00.0,38.6,31.4,13.9,0000.0,0010.27,0004.29,0003.27
2021-09-28 05:19:00,,0824.1,5.01,0.00,29.7,28.7,00.0,38.6,31.5,14.0,0000.0,0010.82,0004.23,0003.26
2021-09-28 05:20:00,,0824.0,5.01,0.00,29.7,28.7,00.0,38.7,31.5,14.0,0000.0,0011.67,0004.25,0003.25
2021-09-28 05:21:00,,0824.0,4.99,0.00,29.7,28.8,00.0,38.7,31.5,14.0,0000.0,0012.25,0004.32,0003.24
2021-09-28 05:22:00,,0824.0,5.00,0.00,29.8,28.8,00.0,38.7,31.6,14.0,0000.0,0012.38,0004.32,0003.22
2021-09-28 05:23:00,,0824.0,5.01,0.00,29.8,28.9,00.0,38.7,31.6,14.0,0000.0,0012.81,0004.28,0003.20
2021-09-28 05:24:00,,0824.0,4.99,0.00,29.8,28.9,00.0,38.7,31.6,14.1,0000.0,0013.57,0004.25,0003.20
2021-09-28 05:25:00,,0824.0,5.01,0.00,29.8,27.4,00.0,38.7,31.3,14.1,0000.0,0013.52,0004.23,0003.19
2021-09-28 05:26:00,,0824.0,4.99,0.00,29.6,25.4,00.0,38.7,30.6,14.2,0000.0,0013.60,0004.21,0003.18
2021-09-28 05:27:00,,0824.0,5.01,0.00,29.4,25.2,00.0,38.7,30.6,14.4,0000.0,0014.35,0004.17,0003.17
2021-09-28 05:28:00,,0824.0,5.00,0.00,29.3,25.7,00.0,38.6,30.7,14.5,0000.0,0014.29,0004.18,0003.15
2021-09-28 05:29:00,,0824.0,5.00,0.00,29.2,26.2,00.0,38.5,30.7,14.6,0000.0,0014.78,0004.19,0003.14
2021-09-28 05:30:00,,0824.0,4.99,0.00,29.2,26.7,00.0,38.5,30.8,14.6,0000.0,0014.40,0004.23,0003.12
2021-09-28 05:31:00,,0824.0,5.02,0.00,29.2,27.1,00.0,38.5,30.9,14.6,0000.0,0014.70,0004.21,0003.10
2021-09-28 05:32:00,,0824.0,4.99,0.00,29.3,27.4,00.0,38.5,30.9,14.6,0000.0,0015.02,0004.14,0003.07
2021-09-28 05:33:00,,0824.0,5.00,0.00,29.3,27.6,00.0,38.5,31.0,14.5,0000.0,0015.51,0004.11,0003.05
2021-09-28 05:34:00,,0824.0,4.99,0.00,29.3,27.8,00.0,38.4,31.0,14.5,0000.0,0015.84,0004.12,0003.05
2021-09-28 05:35:00,,0823.9,5.01,0.00,29.3,28.0,00.0,38.5,31.1,14.5,0000.0,0014.99,0004.11,0003.03
2021-09-28 05:36:00,,0824.0,4.98,0.00,29.4,28.1,00.0,38.4,31.1,14.5,0000.0,0015.01,0004.13,0003.01
2021-09-28 05:37:00,,0824.0,5.00,0.00,29.4,28.2,00.0,38.5,31.2,14.5,0000.0,0015.17,0004.12,0003.00
2021-09-28 05:38:00,,0824.0,5.00,0.00,29.4,28.3,00.0,38.5,31.2,14.5,0000.0,0014.54,0004.12,0002.98
2021-09-28 05:39:00,,0824.0,5.01,0.00,29.5,28.4,00.0,38.5,31.3,14.5,0000.0,0014.34,0004.13,0002.98
2021-09-28 05:40:00,,0824.0,4.99,0.00,29.5,28.5,00.0,38.5,31.3,14.4,0000.0,0014.16,0004.10,0002.98
2021-09-28 05:41:00,,0824.0,4.99,0.00,29.5,28.5,00.0,38.5,31.3,14.4,0000.0,0013.73,0004.04,0002.98
2021-09-28 05:42:00,,0824.0,5.01,0.00,29.6,28.6,00.0,38.5,31.4,14.4,0000.0,0013.18,0004.03,0002.99
2021-09-28 05:43:00,,0823.9,5.00,0.00,29.6,28.6,00.0,38.6,31.4,14.4,0000.0,0012.00,0004.04,0002.99
2021-09-28 05:44:00,,0824.0,4.99,0.00,29.6,28.7,00.0,38.6,31.4,14.4,0000.0,0012.01,0004.02,0002.98
2021-09-28 05:45:00,,0824.0,4.99,0.00,29.7,28.7,00.0,38.6,31.5,14.4,0000.0,0011.32,0004.02,0002.98
2021-09-28 05:46:00,,0823.9,4.99,0.00,29.7,28.8,00.0,38.6,31.5,14.4,0000.0,0011.70,0004.00,0002.97
2021-09-28 05:47:00,,0824.0,5.00,0.00,29.7,28.8,00.0,38.6,31.5,14.4,0000.0,0011.94,0003.94,0002.97
2021-09-28 05:48:00,,0823.9,4.98,0.00,29.8,28.9,00.0,38.7,31.6,14.4,0000.0,0011.73,0003.91,0002.96
2021-09-28 05:49:00,,0823.9,5.00,0.00,29.8,28.9,00.0,38.7,31.6,14.4,0000.0,0012.50,0003.91,0002.96
2021-09-28 05:50:00,,0823.9,5.00,0.00,29.8,28.9,00.0,38.7,31.7,14.3,0000.0,0012.01,0003.93,0002.96
2021-09-28 05:51:00,,0823.9,4.99,0.00,29.9,28.7,00.0,38.8,31.6,14.4,0000.0,0012.05,0003.96,0002.96
2021-09-28 05:52:00,,0823.8,5.00,0.00,29.8,26.8,00.0,38.7,31.1,14.4,0000.0,0012.05,0003.97,0002.96
2021-09-28 05:53:00,,0823.8,5.00,0.00,29.6,26.2,00.0,38.7,31.0,14.5,0000.0,0012.18,0003.97,0002.95
2021-09-28 05:54:00,,0823.8,5.01,0.00,29.5,26.5,00.0,38.7,31.0,14.6,0000.0,0012.16,0003.94,0002.94
2021-09-28 05:55:00,,0823.8,5.01,0.00,29.5,26.9,00.0,38.7,31.0,14.7,0000.0,0011.87,0003.95,0002.94
2021-09-28 05:56:00,,0823.8,5.00,0.00,29.5,27.2,00.0,38.6,31.0,14.8,0000.0,0011.78,0003.96,0002.93
2021-09-28 05:57:00,,0823.8,5.01,0.00,29.5,27.5,00.0,38.6,31.1,14.8,0000.0,0011.39,0003.96,0002.92
2021-09-28 05:58:00,,0823.8,4.99,0.00,29.5,27.8,00.0,38.6,31.2,14.8,0000.0,0011.27,0003.95,0002.90
2021-09-28 05:59:00,,0823.8,5.00,0.00,29.5,28.0,00.0,38.6,31.2,14.8,0000.0,0011.93,0003.96,0002.87
